Location: Hamburg
(53.5500°N, 10.0000°E)
Time: 00:02:47
(UTC+02:00)

Vanguard 1 Rocket - Visible Passes

Search period start: 30 May 2015 00:00
Search period end: 09 June 2015 00:00
Orbit: 655 x 4224 km, 34.3° (Epoch: 28 May)

Date Brightness Start Highest point End Pass type
(mag) Time Alt. Az. Time Alt. Az. Time Alt. Az.
30 May 10.6 00:11:45 10° WSW 00:20:39 19° SSW 00:27:47 15° S visible
30 May 10.3 23:00:36 10° WSW 23:08:49 22° SSW 23:19:45 11° SSE visible
31 May 11.0 01:32:56 10° SW 01:35:44 10° SSW 01:36:58 10° SSW visible
01 Jun 10.8 00:16:51 10° SW 00:23:41 15° SSW 00:29:04 12° S visible
01 Jun 10.5 23:04:56 10° SW 23:11:56 18° SSW 23:21:17 10° SSE visible
03 Jun 10.6 23:10:10 10° SW 23:15:06 13° SSW 23:20:43 10° S visible
